Find Satmex 6

NORAD ID: 29162 Int'l Des: 2006-020 Owner: SAMX Country: MX operational
HEOCIRCULAR

Aktuelle Ansicht

3D-Globus wird geladen...

Über Satmex 6

Beschreibung wird geladen...

Nächste Überflüge

Passes for default location (London). Set your location on the main map for personalized predictions.

Höhenverlauf

Loading altitude history...

Zweizeiliger Elementsatz

1 29162U 06020A 26151.50591146 -.00000041 00000-0 00000+0 0 9999
2 29162 2.3438 82.1684 0004804 321.9113 50.6074 0.98936706 73209
Epoch: 31. Mai 2026 • Age: 9 hours

Aktueller Status

Höhe 36184.7 km
Geschwindigkeit 3.06 km/s
Subsatellitenpunkt 1.16°N, 21.72°E
Startdatum 27. Mai 2006
Alter 20 years
Typ other

Technische Details

Klassifizierung Payload
Masse 5456.00 kg
Trockenmasse 2310.00 kg
Gesamtmasse 5456.00 kg
Länge 7.40 m
Durchmesser 2.80 m
Spannweite 31.40 m
Form Box + 2 Pan
Hersteller LOR
Bus-Typ SSL-1300X
Phasenstatus Renamed
Besitzer/Staat SAMX/MX

Most Searched